Location: Bouchavesnes-Bergen
(49.9859°N, 2.9203°E)
Time: 22:15:17
(UTC+00:00)

Cosmos 1633 Rocket - Pass Details

Date: 09 March 2021
Orbit: 606 x 624 km, 82.5° (Epoch: 13 April)

Event Time Altitude Azimuth Distance (km) Brightness Sun altitude
Rises 05:21:10 0° 342° (NNW) 2,909 6.4 -9.4°
Reaches altitude 10° 05:23:35 10° 332° (NNW) 1,995 5.4 -9.0°
Maximum altitude 05:27:28 31° 270° (W) 1,087 3.8 -8.4°
Drops below altitude 10° 05:31:19 10° 208° (SSW) 1,970 5.3 -7.8°
Sets 05:33:42 0° 198° (SSW) 2,866 6.3 -7.4°
